Tracking 20083 objects as of 10-Dec-2019
HD Live streaming from Space Station
objects crossing your sky now

STARLINK 1063

Track STARLINK 1063 now!
10-day predictions
STARLINK 1063 is classified as:


NORAD ID: 44768
Int'l Code: 2019-074BH
Perigee: 455.2 km
Apogee: 456.9 km
Inclination: 53.0 °
Period: 93.6 minutes
Semi major axis: 6827 km
RCS: Unknown
Launch date: November 11, 2019
Source: United States (US)
Launch site: AIR FORCE EASTERN TEST RANGE (AFETR)
aabbcc
Your satellite tracking list
Your tracking list is empty




NASA's NSSDC Master Catalog

Two Line Element Set (TLE):
1 44768U 19074BH  19344.58334491 -.00063677  00000-0 -16252-2 0  9997
2 44768  53.0059  28.6695 0001297  72.5227 152.6111 15.39050840  4559
Source of the keplerian elements: AFSPC